SB KEPS @ AMSAT $ORB26267.1 2Line Orbital Elements 26267.AMSAT QST de W1STR AMSAT Orbital Elements for Amateur Satellites in TLE Format From Orbital Analysis Office New England Sci-Tech STEM Education Center Natick MA September 24, 2026 To all radio amateurs These element sets describe the orbits of various satellites in use by the amateur radio community. For details see: www.amsat.org/keplerian-elements-formats/ A daily update of element sets is available at: www.amsat.org/tle/daily-bulletin.txt or without bulletin text: www.amsat.org/tle/dailytle.txt AO-07 1 07530U 74089B 26266.86626550 -.00000026 00000-0 12979-3 0 9993 2 07530 101.9918 281.1438 0011971 303.9282 178.5058 12.53699707372880 UO-11 1 14781U 84021B 26267.21596766 .00000921 00000-0 98831-4 0 9996 2 14781 97.8189 231.7632 0006686 206.4578 153.6299 14.91009966271883 LO-19 1 20442U 90005G 26267.04328612 .00000066 00000-0 40250-4 0 9992 2 20442 98.8815 291.5562 0010476 276.7592 83.2399 14.34145511916569 AO-27 1 22825U 93061C 26267.15112873 .00000055 00000-0 37800-4 0 9991 2 22825 98.6785 334.4801 0008706 163.0261 197.1215 14.30962810721153 FO-29 1 24278U 96046B 26266.49449946 -.00000006 00000-0 30189-4 0 9991 2 24278 98.5160 101.8871 0349495 201.1622 157.4753 13.53278570486469 GO-32 1 25397U 98043D 26267.31715342 .00000035 00000-0 35316-4 0 9999 2 25397 99.0161 262.6183 0000544 344.9225 15.1937 14.24444099465444 ISS 1 25544U 98067A 26267.14191496 .00009634 00000-0 18116-3 0 9990 2 25544 51.6318 170.3464 0004691 174.6338 185.4701 15.49258637587098 NO-44 1 26931U 01043C 26267.19899338 .00000049 00000-0 49166-4 0 9995 2 26931 67.0530 348.1759 0005882 273.3130 86.7299 14.31986073304621 SO-50 1 27607U 02058C 26267.20721632 .00000620 00000-0 90817-4 0 9990 2 27607 64.5525 182.5760 0071426 244.2470 115.1253 14.83226036279149 CO-55 1 27844U 03031E 26266.80397174 .00000204 00000-0 10732-3 0 9995 2 27844 98.6773 274.1406 0008404 258.1142 101.9095 14.24385054205716 RS-22 1 27939U 03042A 26267.29566265 .00000072 00000-0 19393-4 0 9991 2 27939 98.3478 94.4856 0010534 320.1631 160.9501 14.73608336230149 CO-65 1 32785U 08021C 26267.06163608 .00003955 00000-0 24583-3 0 9996 2 32785 97.8383 250.6552 0010169 58.7279 301.4944 15.10227566 128 CO-66 1 32791U 08021J 26266.80966831 .00016184 00000-0 46635-3 0 9993 2 32791 97.7568 269.6837 0001870 23.7949 336.3380 15.35822340 2402 RS-30 1 32953U 08025A 26267.32794586 -.00000007 00000-0 -12441-3 0 9998 2 32953 82.5010 293.7784 0020721 95.4226 264.9219 12.43182924832013 SRMSAT 1 37841U 11058D 26267.05462225 .00000363 00000-0 52887-4 0 9993 2 37841 19.9707 181.0334 0011768 211.1158 262.5138 14.11594148771808 ZACUBE-1 1 39417U 13066B 26266.83737789 .00003876 00000-0 29702-3 0 9991 2 39417 97.8164 229.7009 0038521 282.3782 77.3131 15.01872117695534 Delfi-N3xt 1 39428U 13066N 26267.19451589 .00005052 00000-0 43161-3 0 9997 2 39428 97.8296 187.4632 0071118 236.2474 123.1958 14.96162688689425 GOMX-1 1 39430U 13066Q 26267.32138459 .00001006 00000-0 15597-3 0 9990 2 39430 97.6433 101.5357 0129173 118.4873 242.9414 14.69718418684474 LO-74 1 39440U 13066AA 26267.11606721 .00003136 00000-0 28780-3 0 9994 2 39440 97.8994 216.5973 0058268 59.9328 300.7652 14.94315017691763 AO-73 1 39444U 13066AE 26266.85401273 .00005407 00000-0 32645-3 0 9991 2 39444 97.8393 240.5101 0033855 225.5449 134.3010 15.10680369694553 DTUSAT-2 1 40030U 14033W 26266.80946463 .00005363 00000-0 28223-3 0 9997 2 40030 98.0921 270.9162 0006034 255.0927 104.9635 15.16104834667626 LILACSAT-2 1 40908U 15049K 26267.30525189 .00016080 00000-0 24512-3 0 9998 2 40908 97.4551 308.0840 0004809 238.2348 121.8438 15.54551855611131 Lapan A3 1 41603U 16040E 26267.25220479 .00002778 00000-0 87587-4 0 9992 2 41603 97.1573 260.2258 0010928 29.6436 330.5425 15.33644052569996 CAS-2T 1 41847U 16066G 26267.13548672 .00000998 00000-0 14846-3 0 9994 2 41847 98.3746 341.7279 0341063 189.0811 170.4111 14.44857990519080 TechnoSat 1 42829U 17042E 26267.23484262 .00002712 00000-0 19231-3 0 9994 2 42829 97.4415 61.2378 0018873 113.9027 246.4180 15.05448342501607 AO-91 1 43017U 17073E 26266.85963235 .00006853 00000-0 29154-3 0 9992 2 43017 97.4540 132.0587 0146647 348.1922 11.5883 15.14023301480311 S-Net D 1 43186U 18014G 26266.67368187 .00003802 00000-0 19326-3 0 9991 2 43186 97.5250 170.8415 0009289 45.7016 314.4978 15.17439418473697 S-Net B 1 43187U 18014H 26266.68714446 .00003830 00000-0 19479-3 0 9996 2 43187 97.5254 170.8443 0009826 41.2978 318.8997 15.17407248473693 S-Net A 1 43188U 18014J 26267.19955210 .00003849 00000-0 19552-3 0 9992 2 43188 97.5267 171.5815 0009669 40.3742 319.8208 15.17452365473778 S-Net C 1 43189U 18014K 26267.21917459 .00004028 00000-0 20470-3 0 9990 2 43189 97.5286 171.6909 0010844 32.8086 327.3819 15.17402020472324 Ten-Koh 1 43677U 18084G 26266.78013319 .00001319 00000-0 10223-3 0 9997 2 43677 98.0708 103.3146 0009958 142.8723 217.3192 15.03261419430977 PO-101 1 43678U 18084H 26267.32349054 .00001027 00000-0 86070-4 0 9997 2 43678 98.1168 107.8955 0012311 196.6306 163.4514 15.00747952431087 QO-100 1 43700U 18090A 26267.28864102 .00000144 00000-0 00000-0 0 9995 2 43700 0.0193 153.5910 0001244 37.8667 301.3699 1.00272395 28674 MinXSS-2 1 43758U 18099A 26267.29532527 .00042275 00000-0 65330-3 0 9992 2 43758 97.4447 346.9436 0005660 250.5781 109.4861 15.53971697429483 AO-95 1 43770U 18099N 26267.11571392 .00009226 00000-0 33432-3 0 9997 2 43770 97.4286 327.0719 0008087 9.0761 351.0624 15.28564135428324 SNUSat 2 1 43782U 18099AA 26267.11458308 .00005988 00000-0 25637-3 0 9990 2 43782 97.3961 319.0129 0008590 314.7078 45.3458 15.23134308428089 SnugLite 1 43784U 18099AC 26267.08570825 .00009731 00000-0 34806-3 0 9995 2 43784 97.3771 320.4671 0001300 325.0781 35.0374 15.29003243428426 ITASat 1 1 43786U 18099AE 26266.92656764 .00004909 00000-0 22996-3 0 9995 2 43786 97.3930 316.4847 0012388 15.2897 344.8710 15.20102268427904 EAGLET 1 1 43790U 18099AJ 26267.10705451 .00002679 00000-0 15280-3 0 9999 2 43790 97.4134 314.1418 0011162 12.3922 347.7582 15.13555821427291 ESEO 1 43792U 18099AL 26267.08778478 .00000855 00000-0 65188-4 0 9994 2 43792 97.3904 300.2155 0011928 5.2645 354.8705 15.04488531426674 JO-97 1 43803U 18099AX 26266.91337007 .00014770 00000-0 41609-3 0 9999 2 43803 97.4032 330.2409 0003814 274.6986 85.3822 15.36537204428776 Suomi 100 1 43804U 18099AY 26267.12745673 .00010292 00000-0 35170-3 0 9997 2 43804 97.4088 327.2409 0007891 291.5630 68.4769 15.30452711428547 ISAT 1 43879U 18111D 26267.28360704 .01161182 82601-3 13451-2 0 9992 2 43879 97.5645 212.2283 0010890 150.1198 210.0709 16.08957421426804 UWE-4 1 43880U 18111E 26267.04403338 .00039965 00000-0 65522-3 0 9998 2 43880 97.5811 200.4342 0005194 355.7200 4.4007 15.52343247426083 Prox-1 1 44339U 19036A 26267.06096950 .00012479 00000-0 11525-2 0 9999 2 44339 23.9937 172.6833 0005558 104.7934 255.3182 14.92674715388257 Taurus 1 1 44530U 19059C 26267.31340630 .00004040 00000-0 63803-3 0 9994 2 44530 98.6496 78.4214 0008400 6.9723 353.1598 14.72951902373237 TO-108 1 44881U 19093C 26267.25916495 -.00000213 00000-0 -17969-4 0 9995 2 44881 97.7448 337.0339 0014785 117.9992 242.2722 14.86639865366133 RS-44 1 44909U 19096E 26267.05840356 .00000029 00000-0 78453-4 0 9997 2 44909 82.5165 274.0039 0216322 273.2372 84.4003 12.79749542314997 SALSAT 1 46495U 20068K 26267.00432350 .00006305 00000-0 21305-3 0 9992 2 46495 97.8887 276.2015 0008162 324.5633 35.5064 15.31020818330472 CSS (TIANHE-1) 1 48274U 21035A 26267.18690940 .00017686 00000-0 21417-3 0 9992 2 48274 41.4677 80.8645 0002286 304.1802 55.8820 15.60246980308621 TeikyoSat 4 1 49396U 21102B 26267.01360077 .00001408 00000-0 90853-4 0 9996 2 49396 97.3622 292.6464 0010786 318.9763 41.0655 15.09794319267637 Z-Sat 1 49399U 21102E 26267.29992580 .00003303 00000-0 16111-3 0 9999 2 49399 97.3259 299.6193 0014651 260.0767 99.8814 15.18898904268485 KOSEN 1 1 49402U 21102H 26267.06202788 .00005960 00000-0 22026-3 0 9996 2 49402 97.3100 307.3332 0012353 210.6727 149.3792 15.28025448269114 HO-113 1 50466U 21131B 26267.32135039 .00000207 00000-0 77304-4 0 9992 2 50466 98.4970 359.1694 0004659 147.5768 212.5708 14.41430519249393 SNUGLITE 2 1 52899U 22065F 26266.35338838 .00000641 00000-0 13009-3 0 9998 2 52899 98.2346 51.1006 0008648 78.4363 281.7810 14.64496210225369 UmKA 1 (RS40S) 1 57172U 23091G 26267.28228373 .00004383 00000-0 19603-3 0 9995 2 57172 97.4950 325.6065 0013709 129.4938 230.7512 15.21752240179074 CubeBel-2 (EU11S) 1 57175U 23091K 26267.25059746 .00010676 00000-0 35551-3 0 9993 2 57175 97.4953 331.4502 0010645 120.8234 239.4056 15.31258883179457 RS-38S 1 57189U 23091Z 26267.27046185 .00015418 00000-0 40245-3 0 9998 2 57189 97.5004 338.8975 0007883 80.8382 279.3754 15.38871943179918 SONATE-2 1 59112U 24043Q 26266.69775065 .00044746 00000-0 42578-3 0 9992 2 59112 97.5614 63.7935 0005383 194.3062 165.8047 15.66702278143271 GRBBeta 1 60237U 24128C 26267.28805549 .00002622 00000-0 18627-3 0 9998 2 60237 61.9886 228.4069 0026063 156.5074 203.7217 15.07217970121201 Curium One 1 60242U 24128H 26267.29471943 .00005671 00000-0 32322-3 0 9997 2 60242 61.9775 214.4087 0025273 150.4384 209.8147 15.13718205121458 ROBUSTA-3A 1 60243U 24128J 26267.25122893 .00004842 00000-0 28477-3 0 9996 2 60243 61.9852 217.6003 0027196 147.9102 212.3656 15.12793605121408 CatSat 1 60246U 24125J 26267.03294742 .00125516 00000-0 88646-3 0 9991 2 60246 97.1935 121.7479 0015265 164.4893 195.6842 15.73503194122850 AO-123 1 61781U 24199AY 26267.23175631 .00006457 00000-0 18054-3 0 9992 2 61781 97.2832 135.0139 0012073 319.2321 40.8019 15.36953461149135 LASARsat 1 62391U 24247Q 26266.74690793 .00033898 00000-0 54035-3 0 9998 2 62391 44.9710 65.8065 0009891 255.5546 104.4249 15.52646933 98608 CroCube 1 62394U 24247T 26266.72072750 .00044657 00000-0 63456-3 0 9998 2 62394 44.9694 61.2464 0010611 264.9294 95.0388 15.55674097 98650 JINJUSat 1B 1 63210U 25052A 26267.17116071 .00014491 00000-0 41097-3 0 9996 2 63210 97.3861 164.1868 0005292 89.5750 270.6100 15.36323510 85282 NUSHSAT 1 1 63211U 25052B 26267.16085958 .00019235 00000-0 48987-3 0 9991 2 63211 97.3834 165.1391 0005088 92.1717 268.0112 15.39594503 85358 TEVEL2-4 1 63213U 25052D 26267.18875301 .00017099 00000-0 46165-3 0 9996 2 63213 97.3756 163.8975 0004679 101.7660 258.4110 15.37822055 85316 TEVEL2-5 1 63214U 25052E 26267.15705457 .00016648 00000-0 45294-3 0 9999 2 63214 97.3750 163.7815 0004560 102.8834 257.2921 15.37590874 85304 TEVEL2-6 1 63215U 25052F 26267.17155976 .00016323 00000-0 44460-3 0 9991 2 63215 97.3760 163.7815 0004471 103.4578 256.7165 15.37561476 85309 TEVEL2-1 1 63217U 25052H 26267.17368825 .00015587 00000-0 43376-3 0 9998 2 63217 97.3731 163.2806 0004496 111.8628 248.3095 15.36903628 85284 TEVEL2-3 1 63218U 25052J 26267.16398438 .00015757 00000-0 43735-3 0 9999 2 63218 97.3735 163.3084 0004260 111.2162 248.9538 15.36982502 85280 TEVEL2-2 1 63219U 25052K 26267.17321538 .00015883 00000-0 44170-3 0 9992 2 63219 97.3731 163.2848 0004525 112.5751 247.5973 15.36919433 85287 TEVEL2-9 1 63237U 25052AD 26267.15622172 .00014010 00000-0 41878-3 0 9991 2 63237 97.3793 162.4091 0007196 133.6791 226.5050 15.34665505 85190 TEVEL2-7 1 63238U 25052AE 26267.15331965 .00013631 00000-0 41238-3 0 9997 2 63238 97.3796 162.2750 0007116 135.2483 224.9336 15.34293994 85189 TEVEL2-8 1 63239U 25052AF 26267.16238307 .00013468 00000-0 40757-3 0 9998 2 63239 97.3791 162.2586 0007231 133.5329 226.6516 15.34284486 85185 SPIRONE 1 66657U 25274H 26267.26394093 .00001377 00000-0 13478-3 0 9993 2 66657 97.7488 195.1591 0013226 49.2366 310.9999 14.93868882 45017 K-HERO 1 66660U 25274L 26267.17485013 .00001255 00000-0 12204-3 0 9991 2 66660 97.7497 195.3038 0015226 52.6978 307.5628 14.94264517 45015 SNUGLITE-III DURI 1 66661U 25274M 26267.22819385 .00001561 00000-0 15042-3 0 9994 2 66661 97.7494 195.3765 0015862 53.5219 306.7460 14.94270741 45026 SAKHACUBE-CHOLBON 1 67290U 25313AU 26267.26080396 .00007589 00000-0 29363-3 0 9990 2 67290 97.3856 341.1214 0008977 16.1627 343.9896 15.26450001 41083 RS95S (QMR-KWT-2) 1 67291U 25313AV 26266.93775022 .00011628 00000-0 42029-3 0 9994 2 67291 97.3856 341.2375 0008283 14.3952 345.7522 15.28579947 41061 Ten-Koh2 1 68261U 25241B 26267.20222599 .00005402 00000-0 22704-3 0 9990 2 68261 51.6559 207.9799 0008130 116.0078 244.1738 15.24955823 30011 JACK-002 1 68417U 26067B 26266.84709457 .00005808 00000-0 26930-3 0 9997 2 68417 97.4678 224.3508 0000851 12.3646 347.7610 15.20446134 26937 DISCO 2 1 68431U 26067R 26266.88080323 .00007137 00000-0 33088-3 0 9990 2 68431 97.4709 224.3870 0003215 49.7942 310.3574 15.20371809 26931 HADES-SA (SpinnyONE) 1 68446U 26067AG 26265.61425551 .00014049 00000-0 61602-3 0 9995 2 68446 97.4498 222.7137 0009036 93.9639 266.2630 15.22056945 26734 PARUS-6U1 1 68456U 26067AS 26267.26484148 .00004347 00000-0 21450-3 0 9993 2 68456 97.4666 224.2263 0007427 82.2966 277.9112 15.18404364 26961 SAL-E 1 68458U 26067AU 26267.29894787 .00006943 00000-0 33485-3 0 9997 2 68458 97.4590 224.1592 0007724 88.8398 271.3721 15.18986782 26978 FSI-SAT 2 1 68792U 26088A 26267.27484317 .00003474 00000-0 23236-3 0 9992 2 68792 97.5209 54.1788 0015477 125.5797 234.6876 15.07500917 23218 OrigamiSat 2 1 68795U 26088D 26266.85138122 .00010073 00000-0 60990-3 0 9999 2 68795 97.5184 54.2762 0015597 100.0569 260.2421 15.10697700 23182 ARICA 2 1 68796U 26088E 26267.17875346 .00003129 00000-0 20080-3 0 9992 2 68796 97.5197 54.4405 0016789 98.7468 261.5663 15.09094501 23223 WASEDA-SAT-ZERO-II 1 68797U 26088F 26267.28357732 .00005270 00000-0 33082-3 0 9994 2 68797 97.5194 54.6005 0016577 98.0006 262.3105 15.09598224 23248 MANGARO-II-Piscus 1 68798U 26088G 26267.21026325 .00003081 00000-0 19592-3 0 9997 2 68798 97.5207 54.5676 0020299 101.0827 259.2686 15.09382489 23231 CO-128 1 69912U 26156AV 26266.66642841 .00001143 00000-0 12132-3 0 9997 2 69912 97.7467 165.7152 0001181 214.0879 146.0264 14.90961796 11678 MARINA 1 69920U 26156BD 26266.67128144 .00001729 00000-0 17523-3 0 9991 2 69920 97.7434 165.8331 0005897 252.2136 107.8440 14.92189662 11687 IO-86 1 40931U 26199.45381863 .00000000 00000-0 77536-4 0 07 2 40931 6.0006 322.6653 0012733 338.8432 273.6875 14.79294310 03 LILIUM-4 1 71922C 26067AC 26089.50133053 -.00014632 00000+0 -74472-3 0 04 2 71922 97.4497 49.1617 0004341 5.9603 355.7042 15.16896692 16 /EX